EDT,Max TemperatureF,Mean TemperatureF,Min TemperatureF,Max Dew PointF,MeanDew PointF,Min DewpointF,Max Humidity, Mean Humidity, Min Humidity, Max Sea Level PressureIn, Mean Sea Level PressureIn, Min Sea Level PressureIn, Max VisibilityMiles, Mean VisibilityMiles, Min VisibilityMiles, Max Wind SpeedMPH, Mean Wind SpeedMPH, Max Gust SpeedMPH,PrecipitationIn, CloudCover, Events, WindDirDegrees
2012-9-1,90,79,69,70,66,60,96,73,36,30.03,29.98,29.94,10,10,7,12,5,,0.00,0,Rain,313
2012-9-2,80,74,68,72,70,68,100,90,70,30.06,30.03,30.01,10,8,1,8,4,,0.00,4,Rain,83
2012-9-3,77,73,70,72,70,68,100,92,79,30.10,30.07,30.04,10,9,4,15,7,21,0.14,6,Rain-Thunderstorm,85
2012-9-4,82,76,69,76,72,70,100,96,79,30.05,29.99,29.85,10,6,0,13,6,18,2.31,6,Fog-Rain-Thunderstorm,150
2012-9-5,85,76,68,77,74,67,100,90,74,29.84,29.78,29.76,10,7,0,20,10,25,1.53,6,Fog-Rain-Thunderstorm,252
2012-9-6,78,71,64,70,67,64,98,86,68,29.91,29.88,29.83,10,10,8,5,2,,0.00,1,Rain,177
2012-9-7,88,76,66,72,68,66,100,91,56,29.92,29.88,29.83,10,5,0,10,5,,0.00,0,Fog,228
2012-9-8,87,76,66,75,71,64,100,92,59,29.87,29.76,29.58,10,9,1,18,7,25,0.30,6,Rain-Thunderstorm,203
2012-9-9,77,70,62,64,58,51,94,69,41,29.89,29.82,29.78,10,10,10,9,4,,0.02,2,Rain,321
2012-9-10,74,64,55,55,50,44,83,58,39,30.14,29.99,29.89,10,10,0,15,10,26,0.00,1,,320
2012-9-11,74,60,48,55,48,44,86,61,39,30.28,30.24,30.15,10,8,0,9,6,,0.09,0,Rain,332
2012-9-12,79,64,50,55,52,48,93,66,38,30.36,30.32,30.29,10,10,10,6,2,,0.00,0,Rain,203
2012-9-13,80,66,52,60,56,50,94,71,45,30.38,30.32,30.27,10,10,10,7,1,,0.00,0,Rain,195
2012-9-14,81,66,53,63,58,52,93,75,43,30.28,30.19,30.10,10,10,10,8,2,,0.00,0,,194
2012-9-15,73,64,56,61,53,48,94,68,43,30.14,30.10,30.07,10,10,8,15,6,23,0.00,1,,318
2012-9-16,75,62,51,53,49,45,90,64,35,30.13,30.09,30.04,10,10,10,8,2,,0.00,1,,265
2012-9-17,77,62,47,61,52,45,90,65,35,30.12,30.07,30.02,10,10,4,10,3,,0.00,1,Rain,196
2012-9-18,79,73,67,70,68,62,96,85,69,30.00,29.76,29.65,10,9,1,28,13,39,0.68,6,Rain,190
2012-9-19,70,62,55,67,56,44,97,77,42,30.16,29.90,29.75,10,10,10,23,11,30,0.00,6,Rain,318
2012-9-20,72,59,48,59,54,44,100,76,54,30.18,30.12,30.08,10,10,10,8,3,,0.00,3,Rain,66
2012-9-21,75,64,53,62,56,53,100,91,52,30.10,30.07,30.00,10,5,0,9,1,,0.00,1,Fog,97
2012-9-22,83,68,53,68,63,52,96,85,56,29.99,29.86,29.78,10,8,2,21,6,28,0.43,5,Rain-Thunderstorm,236
2012-9-23,68,61,53,64,46,42,95,60,39,30.12,30.03,29.88,10,10,10,14,7,18,0.00,1,,321
2012-9-24,68,58,47,46,42,36,88,63,33,30.18,30.14,30.11,10,10,10,14,5,18,0.00,0,,308
2012-9-25,73,59,45,54,49,40,84,67,44,30.20,30.16,30.12,10,10,10,18,6,,0.00,1,,215
2012-9-26,81,71,62,64,59,54,85,71,51,30.14,30.07,30.02,10,10,6,16,10,24,0.00,5,Rain,228
2012-9-27,74,68,62,66,63,61,100,89,64,30.16,30.10,30.05,10,6,0,9,2,,0.19,4,Fog-Rain,328
2012-9-28,79,72,65,68,66,64,100,90,63,30.11,30.01,29.92,10,10,7,13,4,16,0.01,5,Rain,179
2012-9-29,66,60,54,64,58,51,100,87,64,29.94,29.92,29.88,10,10,7,12,5,,0.00,7,Rain,315
2012-9-30,69,60,52,54,50,47,93,73,47,29.87,29.83,29.78,10,10,5,15,4,,0.00,3,Rain,285